sat.trackr.live / text

‹ back to catalog

ONEWEB-0714

NORAD 54681 · 2022-166AR

PAYLOAD ACTIVE UNKNOWN

§ Identity

Operator
Country
UK
Launch date
2022-12-08
Launch site
AFETR
Launch vehicle
Mass (kg)
RCS (m²)

Purposes: comms

External: N2YO · Heavens-Above · Gunter

§ Orbital elements

Epoch: 2026-05-25T00:14:38.846112Z

Period
108.94 min
Inclination
87.9251°
Eccentricity
0.0001999
Mean motion
13.21826425 rev/d
Perigee alt
1,176.2 km
Apogee alt
1,179.3 km
Semi-major
7,555.9 km
B*
-1.9669e-4
RAAN
248.5897°
Arg perigee
93.5325°
Mean anomaly
266.6038°
Rev number
16,847

§ Raw data

ONEWEB-07141 54681U 22166AR  26145.01017183 -.00000068  00000+0 -19669-3 0  99992 54681  87.9251 248.5897 0001999  93.5325 266.6038 13.21826425168477

JSON: /api/v1/satellites/54681 · /tle

For live sub-satellite position, see the globe view (requires WebGL).

§ Visibility from observer

Set your observer location to see the next 7 days of passes ≥ 10°. The values pass through the URL so the page stays shareable.

No JS? Fill the form by hand. The geolocation button needs JavaScript.